Theta_e
302 302 303 305 306 306 306 310 311 310 310 304 297 299 290 288 286 294 297 299 297 290 283 285 283 281 283 287 285 287 286 284 285 284 284 283 285 283 281 282 280 281 281 279 279 280 278 278 277 279 279 280 282 282 285 285 284 287 283 283 283 284 279 276 278 281 282 282 283 282 282 284 281 282 283 281 278 279 278 278 278 275 275 273 274 270 275
301 301 302 303 305 305 305 306 311 310 309 303 300 294 289 289 287 288 295 299 296 287 278 278 280 282 282 283 284 287 287 283 282 283 284 283 283 282 282 282 283 282 282 282 279 281 278 280 280 279 280 280 279 280 284 286 284 285 284 283 285 279 280 279 276 276 275 276 279 279 282 281 279 280 282 282 283 282 281 280 280 274 275 275 273 269 276
301 301 301 302 303 304 304 305 306 310 309 306 299 290 291 287 290 289 291 296 294 283 285 282 281 281 280 281 280 282 283 285 286 285 284 286 284 283 282 284 283 281 281 281 282 282 282 279 281 281 279 280 278 278 284 286 286 285 286 288 289 282 280 277 274 271 271 271 271 273 275 276 280 281 281 282 281 280 278 274 275 271 276 276 273 274 281
300 300 301 301 301 303 304 304 304 307 309 306 300 293 288 285 279 285 286 289 288 288 289 286 284 281 280 279 280 283 281 283 285 288 284 286 285 285 283 282 284 280 280 278 278 278 280 280 278 278 278 278 277 278 281 285 286 284 286 288 287 280 280 279 279 278 277 279 277 278 282 280 277 279 280 280 281 282 281 280 275 272 276 275 277 278 280
299 300 300 300 301 301 303 303 304 304 309 306 300 294 289 289 283 283 278 286 285 284 286 283 284 281 284 278 282 279 281 283 281 286 282 285 285 281 282 281 280 279 280 279 278 280 279 279 277 277 278 278 278 277 280 282 283 284 287 288 284 279 278 278 278 278 279 281 278 280 280 278 279 279 279 281 280 281 279 276 274 280 276 272 278 281 278
298 298 299 300 300 301 301 303 303 303 304 307 301 288 289 283 286 288 287 283 278 280 281 285 282 283 285 280 284 281 281 281 279 283 284 283 286 281 280 280 284 282 280 280 277 278 278 278 276 279 278 278 277 278 278 280 284 284 285 288 284 280 277 279 279 278 280 281 281 280 279 279 279 279 279 279 281 280 277 278 280 280 275 274 280 280 279
299 298 298 299 299 299 300 301 302 303 302 306 299 287 288 288 287 287 293 284 284 284 284 286 283 281 282 282 282 280 281 279 282 282 280 281 281 284 279 279 281 282 282 281 279 278 275 274 278 278 277 277 277 277 276 279 282 284 284 285 285 282 278 278 278 277 278 279 280 280 279 279 279 279 279 280 280 280 280 279 280 280 278 280 280 280 280
298 299 298 298 299 299 299 300 301 302 302 301 297 292 287 284 285 284 289 288 286 285 285 284 283 280 283 279 281 281 282 281 283 282 281 278 280 284 281 282 281 282 281 282 280 280 283 283 277 279 278 277 278 278 279 277 279 283 282 283 284 281 276 280 277 274 274 277 279 279 278 278 276 278 279 279 279 279 280 280 280 281 279 280 280 279 279
296 297 299 298 297 299 299 299 300 300 301 292 292 293 293 291 293 290 286 282 285 285 284 283 282 280 281 279 281 282 283 282 285 282 285 283 280 281 280 283 281 282 281 281 283 285 285 285 283 282 281 278 280 278 278 281 277 280 281 282 282 281 277 274 274 272 273 276 275 276 276 275 275 274 275 276 277 276 278 277 280 279 277 279 279 277 278
296 296 296 298 298 298 298 299 299 300 301 292 289 286 294 294 292 293 288 282 286 284 284 284 282 278 282 282 282 282 282 285 286 281 284 285 286 284 284 284 282 280 280 280 283 286 285 285 284 285 285 286 283 283 282 282 280 279 280 283 279 279 277 273 273 271 272 274 271 272 273 274 272 272 275 276 277 278 279 280 281 281 281 278 276 277 283
296 296 296 296 296 298 298 298 299 299 298 291 287 287 288 288 287 288 287 282 284 284 284 282 281 282 284 284 283 285 284 285 285 280 281 284 285 287 286 283 281 281 280 283 288 287 285 283 283 284 284 283 281 281 282 283 284 283 281 280 280 279 277 275 275 272 271 270 271 271 272 269 272 281 283 283 279 278 276 277 278 280 281 280 282 283 286
296 295 296 297 297 298 298 298 299 299 298 295 294 287 289 289 288 288 285 280 282 285 283 280 282 283 283 284 284 283 283 283 283 286 283 283 285 285 285 284 283 280 285 286 284 284 285 286 285 284 282 281 281 280 280 280 281 285 284 280 277 277 276 275 273 271 271 271 273 273 269 272 277 276 278 279 281 282 280 280 281 281 281 282 282 283 284
295 296 295 296 297 297 297 297 297 297 299 296 294 287 289 291 287 286 285 283 281 283 280 282 285 285 285 285 284 284 285 286 286 286 286 284 282 283 284 284 283 286 286 285 285 285 282 280 280 281 279 280 278 278 277 277 278 281 282 283 279 276 276 274 270 271 272 269 271 266 271 277 279 281 283 282 281 281 279 278 280 281 281 281 281 282 284
295 294 295 294 295 296 297 297 297 297 297 298 293 291 290 288 285 285 285 282 282 286 284 284 284 283 285 285 284 284 285 285 285 286 283 286 284 283 285 287 287 287 286 286 285 283 279 281 278 278 276 277 277 276 278 278 278 278 279 280 282 279 277 275 272 274 271 271 271 273 279 277 280 280 282 280 279 277 278 277 282 284 283 282 281 282 283
295 294 294 295 294 295 296 297 296 297 296 297 295 293 292 288 287 285 286 285 280 285 285 280 283 284 285 284 285 283 283 283 283 282 285 287 285 286 287 288 286 286 287 285 282 284 281 279 274 274 274 273 270 272 276 274 275 276 278 280 280 280 276 276 274 272 274 270 269 271 271 268 276 282 279 279 279 281 281 280 279 284 284 285 283 283 284
294 294 294 294 295 295 295 296 296 296 297 296 294 291 292 293 289 287 285 284 283 278 283 287 288 286 285 284 285 283 282 282 282 283 282 283 284 281 283 285 287 288 287 285 284 282 280 278 275 275 272 273 277 275 272 272 270 273 276 276 278 277 278 278 275 273 270 269 267 268 268 273 280 279 278 278 278 279 279 279 277 287 286 285 284 284 285
294 294 294 294 294 294 295 296 296 296 297 296 291 292 290 295 288 286 285 284 283 278 287 287 288 288 286 284 285 284 285 282 283 279 278 280 282 281 281 284 287 288 286 284 282 280 279 278 280 278 279 278 275 275 274 271 270 268 273 275 275 274 274 274 271 271 271 270 268 269 274 274 280 280 279 279 278 278 280 275 278 287 284 285 285 284 285
293 293 294 294 293 295 295 295 296 296 296 297 292 291 289 295 292 289 285 283 281 281 286 287 286 285 284 285 284 286 287 285 285 284 283 282 278 277 279 283 281 284 286 282 282 280 278 279 276 277 276 280 280 279 273 273 268 268 267 271 270 271 270 272 269 271 272 272 270 272 274 280 282 281 280 279 277 280 276 273 284 287 285 284 284 285 285
292 294 294 293 293 294 294 295 295 296 296 296 294 291 291 293 294 290 286 284 282 278 286 290 290 287 289 291 288 288 287 286 285 282 280 277 278 282 282 283 285 279 283 281 283 279 278 278 283 280 277 278 279 276 279 273 273 272 272 268 269 269 271 271 272 270 270 271 269 270 273 280 282 283 282 281 280 275 275 285 286 287 287 284 285 286 284
293 293 293 294 293 293 293 293 295 295 295 296 294 287 290 294 295 291 285 281 284 282 285 285 287 285 289 287 286 285 285 285 286 283 281 278 282 283 281 278 281 282 281 283 278 282 279 277 279 281 278 278 278 283 276 278 277 271 272 276 273 271 269 268 268 271 271 270 268 268 267 279 283 282 281 282 278 281 287 287 285 283 285 284 283 284 284
292 293 292 293 293 293 293 293 294 294 294 294 294 287 287 292 293 293 291 287 283 280 282 288 288 288 289 288 290 290 288 284 285 284 285 285 284 282 274 274 279 281 278 281 276 279 280 278 280 279 281 281 280 281 275 278 274 278 277 277 277 278 273 272 271 275 269 268 266 268 277 281 283 283 277 280 283 288 289 287 287 287 285 285 284 283 284
292 292 292 293 294 293 292 292 293 294 293 294 295 289 285 290 292 293 292 289 284 281 284 288 288 287 290 291 290 290 290 292 292 292 288 283 284 284 284 285 283 282 283 285 281 279 280 281 281 277 276 278 283 278 280 276 273 278 278 280 274 279 279 279 272 277 276 273 275 280 283 283 284 284 286 285 286 287 288 287 288 287 284 283 285 287 284
292 292 292 292 292 293 293 292 292 293 294 293 293 289 285 289 290 293 290 284 285 286 287 285 286 287 290 291 293 294 293 294 294 294 292 285 282 284 284 283 282 286 286 287 282 283 283 282 279 282 280 280 278 278 279 279 278 278 273 281 282 284 284 284 282 280 281 283 284 283 283 282 282 285 286 286 286 287 288 286 286 285 287 284 285 286 286
292 291 292 292 293 292 291 292 292 292 292 292 292 289 287 289 290 290 286 285 283 280 284 286 284 281 283 284 289 293 294 294 294 296 296 291 282 281 286 286 286 286 284 286 289 285 285 283 281 284 278 281 282 278 276 275 277 281 279 278 280 282 284 281 279 281 279 276 283 282 282 284 283 284 285 286 286 286 286 286 286 288 288 285 284 285 285
291 292 291 291 292 292 291 292 292 292 292 292 291 293 291 288 291 290 285 279 280 279 275 279 282 285 289 292 293 293 294 296 297 297 295 292 290 284 282 287 289 286 284 286 287 285 283 279 279 279 277 283 283 277 283 279 279 284 277 280 280 279 284 280 280 280 279 281 283 284 286 285 286 285 284 284 285 285 285 286 287 287 287 286 286 286 285
291 291 292 292 292 292 291 291 292 292 292 291 291 289 286 287 291 291 287 286 285 282 275 275 279 289 290 290 287 291 295 296 296 296 295 293 293 292 290 289 286 287 287 287 286 285 282 281 282 282 279 280 286 281 280 283 283 285 281 280 284 284 283 277 281 279 282 284 285 285 284 284 284 285 286 286 287 287 286 286 285 285 285 286 286 286 285
291 291 291 291 291 291 291 291 292 292 292 291 290 289 288 288 291 289 285 284 280 276 278 276 280 284 287 286 292 294 293 295 295 295 295 294 292 293 291 288 287 286 285 285 286 286 285 283 283 280 282 282 285 283 285 283 282 280 279 284 285 281 278 283 282 278 278 279 282 285 280 281 285 285 286 286 287 288 288 288 287 286 286 286 286 287 288
290 290 291 292 292 291 291 291 291 292 291 291 290 290 290 289 290 290 290 288 282 275 277 279 280 280 286 283 288 289 290 290 292 293 294 294 293 292 290 288 287 285 285 284 281 281 281 280 279 285 284 283 283 281 285 286 285 282 281 283 285 282 283 283 279 279 279 284 286 288 287 287 288 289 288 289 289 288 286 286 287 287 288 288 287 287 287
290 290 290 290 291 291 290 291 291 291 291 289 288 287 287 289 290 291 290 291 288 282 280 280 283 283 275 278 289 287 289 290 290 291 291 292 292 290 289 287 286 287 286 285 284 283 282 282 286 283 282 286 284 281 283 277 278 277 281 285 286 286 288 286 285 285 287 289 288 288 287 285 288 289 289 288 289 288 287 288 288 288 288 288 288 288 287
290 291 290 290 290 290 291 291 291 291 291 288 286 282 278 281 289 290 291 290 288 285 279 276 273 276 286 283 279 284 287 289 290 290 290 290 290 289 288 287 286 288 286 285 284 281 283 283 284 286 287 289 284 283 280 280 278 280 286 287 288 288 288 289 289 287 286 289 289 290 289 288 289 290 290 289 288 287 287 287 288 288 288 289 288 287 287
290 291 291 290 290 290 291 291 290 291 290 287 283 276 274 272 282 291 292 291 291 285 280 280 275 282 280 282 285 284 285 287 287 288 288 289 289 289 289 288 287 288 284 285 284 283 285 281 283 284 287 288 287 283 280 280 278 281 285 287 288 288 288 288 290 290 290 290 290 290 290 289 287 288 287 287 287 286 286 288 288 288 289 288 287 287 287
290 291 291 290 290 290 290 290 290 289 288 284 280 278 279 281 284 285 290 291 291 284 279 275 275 275 274 280 283 286 287 287 288 288 288 289 287 289 288 288 285 288 287 284 285 285 283 284 284 283 284 287 288 283 283 281 279 281 287 288 289 289 290 289 289 290 290 290 289 288 287 288 289 287 287 289 288 286 287 288 290 290 287 287 288 288 288
289 290 291 290 290 290 290 289 290 289 285 287 289 290 291 291 291 291 290 288 285 282 284 277 272 276 276 275 283 282 285 285 284 285 284 289 285 288 285 287 286 286 289 286 283 281 285 285 285 283 285 289 284 282 281 280 281 286 288 289 289 290 289 290 290 290 290 290 289 285 285 287 288 290 290 290 290 288 287 288 289 290 288 286 286 286 286
290 290 289 289 289 290 289 289 290 288 288 284 280 282 285 290 290 291 291 287 283 283 281 275 273 273 272 282 274 279 288 282 282 285 281 288 287 287 284 286 285 283 284 282 284 284 284 285 283 283 286 283 285 282 277 281 286 286 288 289 290 289 289 289 289 289 289 289 289 289 290 291 291 291 290 288 289 290 289 289 288 287 286 285 285 286 287
289 289 289 289 289 290 290 289 283 282 279 280 281 284 287 289 290 291 289 285 277 275 276 275 277 272 272 272 270 277 286 284 280 284 281 285 289 285 286 283 284 280 281 287 284 283 282 283 286 282 279 285 282 277 280 283 284 286 287 287 288 288 287 286 287 288 289 289 289 289 290 290 289 288 289 289 288 288 287 286 286 286 286 286 286 286 286
288 288 288 288 287 286 284 285 283 280 277 278 280 287 288 289 289 289 289 288 282 276 274 274 275 270 272 268 269 276 286 280 284 286 284 286 284 287 286 284 279 282 287 282 278 284 281 286 284 278 284 280 277 281 282 285 285 286 286 286 288 287 287 287 287 287 287 288 288 288 288 288 288 288 288 288 288 288 288 287 286 285 285 286 287 287 286
288 287 287 287 283 280 276 276 283 282 278 282 285 288 289 287 284 287 284 283 282 284 276 274 271 271 274 272 277 278 281 275 284 282 283 281 280 286 284 282 278 284 280 279 281 280 284 289 283 279 280 278 281 285 286 286 286 286 286 287 288 288 288 287 287 285 285 285 286 286 287 287 286 287 287 287 287 287 287 286 287 286 285 285 286 286 286
287 286 282 278 275 271 270 273 275 281 289 287 288 283 280 283 276 278 278 276 280 281 277 277 271 275 278 275 270 279 279 276 283 276 280 284 281 279 284 282 281 283 274 278 281 287 285 283 279 279 280 284 286 286 287 287 287 288 288 283 277 275 281 286 286 285 284 283 283 284 285 285 285 286 286 286 286 286 286 287 287 287 287 286 286 287 286
285 280 277 276 273 270 272 273 284 287 286 286 283 276 275 276 273 270 270 274 273 271 277 275 272 276 275 273 275 282 277 275 275 277 273 281 279 275 283 275 283 282 277 278 280 288 278 278 280 279 279 282 284 281 273 274 276 270 268 270 270 270 271 272 277 283 285 286 286 287 286 286 285 285 286 286 287 287 287 287 287 286 286 286 286 286 286
275 274 274 274 273 275 283 284 286 284 283 277 275 275 269 273 270 266 273 266 266 270 275 270 277 276 276 273 273 274 283 277 271 271 273 276 284 274 280 280 282 280 273 275 279 285 278 274 279 278 277 283 278 264 265 267 267 267 266 265 267 267 267 269 271 272 271 274 277 280 282 283 285 286 286 286 286 286 286 286 286 286 286 286 286 286 286
276 273 272 272 273 272 276 279 276 272 272 271 270 270 266 264 266 267 268 266 267 267 271 271 275 274 275 276 276 272 281 282 279 278 277 272 282 281 276 269 278 275 273 275 282 283 278 278 277 276 272 261 259 262 262 263 263 264 264 264 263 264 264 266 267 268 269 271 273 274 274 274 275 278 280 281 283 284 285 286 286 286 285 285 285 285 287
277 275 274 275 274 273 273 272 271 271 271 269 264 263 265 266 265 263 266 264 266 269 270 270 265 271 273 276 275 276 275 276 280 278 276 272 280 275 273 275 278 271 268 278 283 276 278 273 275 271 259 260 260 260 260 259 261 261 262 262 261 262 262 263 263 265 267 268 270 271 271 270 271 274 276 276 277 278 280 283 284 285 286 286 286 286 286
284 281 280 271 269 268 266 265 267 269 265 266 265 259 263 261 262 264 264 269 267 269 271 271 270 278 277 277 274 274 275 280 277 275 276 272 280 276 273 273 274 268 273 279 275 273 272 270 270 259 259 258 260 258 259 259 259 260 261 261 260 260 261 261 262 262 265 266 267 268 268 268 269 270 272 273 273 273 274 277 279 281 283 284 285 286 286
281 279 273 269 268 267 269 263 269 265 263 262 261 259 260 258 261 264 262 264 265 268 270 272 273 274 272 278 276 274 274 274 281 275 273 275 274 269 272 269 271 277 280 269 272 271 267 258 257 258 258 258 259 258 258 257 258 258 259 259 260 259 259 260 260 261 262 264 264 265 267 266 267 268 269 270 270 270 271 273 277 279 280 282 282 284 285
273 270 268 268 266 269 266 262 266 262 258 259 265 262 262 259 260 260 266 268 270 269 269 270 272 273 272 273 272 273 277 270 278 272 265 274 269 271 270 269 275 274 271 269 271 270 265 257 259 257 257 256 257 257 257 257 257 257 257 257 257 257 257 257 258 259 259 261 261 263 264 265 265 265 267 267 269 271 271 272 275 276 276 277 279 281 283
269 267 266 263 262 264 260 257 258 257 261 264 264 263 263 266 263 263 268 268 269 269 271 272 270 272 272 272 272 271 274 272 271 269 271 269 266 266 272 273 274 269 270 271 269 267 262 259 257 256 257 256 256 256 257 257 257 257 257 255 256 255 256 257 256 257 258 259 259 261 263 263 263 263 264 267 269 269 270 271 273 274 275 276 277 279 281
270 270 266 264 261 261 261 258 257 259 261 262 264 265 266 268 268 268 268 266 270 271 269 266 270 272 271 270 271 271 272 272 269 272 273 265 264 270 273 268 266 267 266 266 267 260 258 258 257 256 255 255 256 255 256 256 256 255 255 255 254 255 256 256 256 256 257 258 258 260 262 261 262 262 265 265 265 267 268 270 271 272 274 275 276 277 277
265 268 266 261 260 261 260 261 259 261 261 264 266 265 266 266 266 268 270 268 270 269 269 269 269 269 270 272 272 269 271 273 270 271 271 269 272 264 265 267 263 258 258 260 259 261 257 257 255 254 255 255 255 254 254 254 255 255 255 254 254 254 255 254 254 255 255 257 257 259 260 260 260 261 264 264 263 265 267 267 270 272 271 271 271 272 273
269 266 265 261 261 260 259 261 261 262 266 263 262 263 266 266 268 269 269 266 267 269 269 269 266 268 267 268 270 269 267 271 266 267 272 269 267 264 266 261 263 259 261 259 258 255 255 255 254 254 253 254 254 254 254 254 255 254 254 253 253 254 254 254 254 255 256 256 257 258 258 259 260 261 263 262 261 263 264 267 269 269 269 268 267 268 270
267 265 265 261 261 261 257 259 261 262 260 261 264 266 263 264 266 266 267 267 265 263 265 272 272 268 264 265 263 266 266 268 269 270 265 264 265 265 263 259 262 262 260 252 252 253 253 253 253 252 252 252 253 253 253 253 254 254 253 253 254 254 253 253 254 255 256 256 256 257 258 258 258 260 261 260 261 262 265 266 267 266 266 266 266 266 267
268 266 263 263 264 261 261 261 259 260 263 264 265 265 264 264 264 263 264 262 265 267 266 265 263 263 262 260 260 259 264 268 266 264 264 262 262 261 262 263 259 254 253 252 252 252 252 252 252 251 251 251 252 252 252 253 253 252 253 253 253 253 253 253 254 255 255 256 256 257 257 257 258 260 261 261 261 262 262 263 263 263 263 264 264 264 264
264 262 262 261 261 261 261 262 261 261 262 261 261 261 262 262 259 258 260 260 265 267 266 266 265 264 260 259 261 261 263 263 264 263 259 255 251 258 258 254 250 249 250 249 249 250 251 251 251 251 251 251 251 252 252 253 252 252 252 252 252 252 252 253 253 254 254 255 255 256 256 257 258 260 261 259 259 260 259 259 260 261 261 261 262 263 265
Wind_Speed
31 29 27 27 25 28 27 23 31 30 30 18 9 9 8 13 9 6 20 18 21 12 12 9 14 13 6 6 5 1 3 4 5 9 5 6 4 3 4 5 5 6 3 3 6 10 3 9 7 5 7 5 5 5 11 11 12 1 3 4 4 4 2 3 5 2 1 2 1 2 2 3 3 7 4 7 10 11 7 3 2 3 4 5 6 7 16
29 31 29 27 26 27 27 26 28 30 34 16 12 12 9 8 7 4 6 18 16 13 15 19 17 14 2 5 7 2 4 4 6 8 10 9 7 7 6 1 6 2 4 3 7 11 2 10 8 4 5 3 4 5 12 16 9 10 7 6 9 5 4 4 1 1 2 2 2 2 2 3 7 7 10 12 7 7 3 3 1 4 12 10 7 12 15
24 28 30 29 26 24 27 26 23 31 35 24 14 11 7 6 2 2 8 11 14 20 10 6 9 16 14 8 12 9 4 8 11 12 12 8 5 5 7 6 7 4 4 3 2 7 12 1 8 2 4 3 4 1 9 13 9 2 2 3 9 4 4 7 5 6 4 3 3 4 7 9 7 9 12 13 14 12 7 7 8 8 6 16 13 14 21
24 24 27 30 28 25 23 25 27 20 34 28 16 10 6 10 8 5 7 10 12 11 2 2 9 13 14 11 12 11 8 2 6 9 8 9 5 3 4 3 6 4 8 5 6 8 4 4 2 5 4 2 2 2 7 10 5 1 3 5 9 4 1 6 7 7 9 3 4 3 7 6 7 8 13 14 15 15 13 5 8 16 7 12 21 18 21
25 23 24 26 29 28 25 21 23 26 22 28 17 9 8 4 10 11 10 3 11 11 11 7 7 13 15 9 8 15 17 5 2 8 5 10 11 5 5 7 11 7 12 6 6 5 5 1 3 6 3 1 2 2 4 5 6 3 3 6 4 2 4 9 10 10 12 9 1 5 5 6 8 9 11 13 15 17 18 15 13 5 3 17 14 15 14
27 25 22 23 26 28 27 24 20 24 22 32 17 10 7 9 8 12 16 18 15 16 15 18 14 6 16 11 9 12 16 13 9 5 5 3 11 9 2 6 14 17 17 12 7 8 6 5 7 7 6 3 3 2 3 7 8 8 3 7 7 4 6 3 7 14 14 13 10 5 5 9 10 12 13 14 16 17 20 23 20 10 12 20 2 14 18
24 27 24 22 24 25 27 27 21 21 23 17 18 12 6 3 1 5 11 13 12 27 29 30 21 16 18 10 14 13 17 20 15 8 8 7 6 16 12 16 17 16 12 14 5 13 6 10 7 7 6 11 6 3 1 6 5 9 6 7 3 3 8 4 6 8 9 12 11 8 11 12 12 16 19 18 17 21 24 25 22 22 23 23 24 24 27
25 24 24 25 23 24 25 27 26 19 20 15 17 15 12 12 11 8 11 13 12 16 9 12 17 13 17 11 18 18 19 21 12 6 11 8 10 11 18 11 17 15 13 14 11 18 18 12 12 13 10 3 7 9 8 5 3 10 11 9 5 7 3 5 4 3 7 12 10 11 13 14 16 17 19 19 19 20 23 23 23 23 26 31 31 29 28
26 26 24 24 24 23 24 25 25 24 13 9 10 9 12 4 9 2 10 15 13 12 16 13 21 15 14 12 16 15 20 20 17 14 11 21 13 16 27 14 13 14 16 16 16 15 17 11 13 13 17 11 13 9 5 11 8 12 10 7 8 8 3 4 2 3 5 4 5 8 7 10 14 15 18 17 18 19 21 19 23 20 26 27 21 19 21
26 25 26 25 25 24 24 24 24 23 18 7 5 7 4 9 2 2 5 15 15 17 16 17 15 16 15 19 24 16 24 17 15 11 13 19 17 18 17 18 13 9 20 23 20 13 15 7 5 11 11 4 6 3 5 11 12 11 12 8 8 8 5 4 3 4 7 2 2 3 6 8 14 18 21 21 23 23 19 18 18 22 25 16 13 20 21
28 26 26 26 25 25 24 24 24 24 15 8 4 4 1 8 4 5 4 11 11 15 15 16 20 18 24 23 15 13 13 13 17 18 11 15 16 11 16 19 15 10 21 23 11 6 7 9 6 6 5 4 4 3 5 6 9 13 13 9 7 7 7 3 3 5 1 1 3 2 4 14 9 7 9 13 17 18 21 20 21 23 19 18 19 19 16
27 27 26 25 25 25 25 23 23 24 17 11 6 6 5 2 8 7 8 16 13 14 18 18 22 16 23 22 21 20 23 22 24 25 20 4 14 12 13 16 15 13 2 15 19 14 12 8 9 7 7 5 4 3 4 10 7 6 10 11 7 10 7 5 2 2 1 1 2 6 15 13 4 2 2 3 4 6 16 19 18 19 22 23 21 22 22
26 28 26 26 26 26 26 24 24 23 20 10 9 9 5 6 5 3 5 9 13 14 15 18 21 25 24 25 23 21 24 25 21 20 18 8 6 15 17 17 19 13 15 17 15 14 8 5 4 2 2 4 2 1 3 6 9 9 7 7 10 10 11 5 1 1 1 1 3 5 8 5 6 8 11 5 7 6 4 15 22 21 20 24 25 27 26
26 27 27 26 26 27 26 26 24 23 23 15 9 8 6 5 5 6 5 6 10 9 16 15 20 25 24 19 17 21 20 16 14 13 16 15 15 15 10 11 11 12 15 19 14 13 5 3 3 4 3 3 1 4 9 9 11 11 11 9 8 11 5 4 5 4 8 4 11 17 12 22 15 11 10 8 7 9 10 10 13 11 18 20 21 25 23
27 27 28 27 26 26 27 25 24 23 22 20 10 10 8 7 6 3 1 6 11 8 10 18 18 20 27 23 20 17 15 16 14 15 17 12 8 8 13 7 11 16 17 15 5 4 4 4 4 6 4 6 9 6 6 7 1 3 7 10 6 7 12 7 8 6 8 7 8 7 4 13 3 4 0 2 2 6 4 3 13 5 13 17 20 19 19
26 27 28 27 25 25 27 26 25 25 22 22 10 11 11 8 9 5 4 6 7 13 9 14 12 17 17 20 23 24 17 13 15 12 14 10 8 5 3 5 11 18 13 5 9 8 7 9 12 10 8 10 4 4 7 5 2 1 0 3 8 1 1 4 11 4 4 5 6 8 11 7 4 2 3 1 1 3 2 2 11 6 9 11 14 16 14
28 26 27 27 26 26 25 25 25 25 23 21 10 8 11 6 9 6 5 7 9 13 5 4 12 13 12 15 14 16 12 12 12 11 10 13 14 7 5 6 8 15 13 9 4 6 8 8 7 6 4 6 9 7 8 3 6 2 6 7 8 9 8 6 8 13 8 6 8 14 6 9 2 4 3 4 2 4 3 6 6 2 4 5 9 13 11
28 27 26 25 27 26 26 25 24 24 23 22 13 8 8 8 8 7 5 6 7 6 8 11 10 12 15 11 15 12 11 8 10 4 8 5 8 6 8 8 8 4 2 11 10 10 12 10 13 13 14 6 4 8 10 10 7 10 10 13 8 10 6 9 16 11 13 16 13 8 13 9 10 12 4 2 3 2 0 12 7 4 4 6 8 8 6
28 26 25 26 25 26 25 24 24 23 22 22 12 10 9 8 7 10 6 6 7 8 2 1 9 13 8 5 12 10 12 17 15 14 9 6 5 8 13 1 3 9 7 11 12 11 10 10 7 3 7 7 6 12 5 9 7 7 13 9 2 4 7 4 4 13 13 12 12 12 13 16 12 13 13 8 2 4 16 10 3 2 1 4 6 6 7
27 27 26 24 25 24 24 25 25 22 23 23 13 9 7 7 8 12 8 6 5 8 11 9 5 11 5 9 9 11 8 9 11 11 12 13 11 19 9 6 3 3 7 6 10 8 11 13 11 5 8 8 9 3 1 8 9 14 8 12 11 14 11 11 13 5 3 2 5 4 12 4 19 16 11 9 8 13 8 1 2 3 2 3 5 5 6
27 26 26 26 25 25 25 24 23 23 22 23 16 10 9 7 9 10 9 7 4 7 9 5 8 13 13 13 12 13 12 17 16 15 12 10 17 17 14 14 18 12 11 13 14 14 9 13 12 8 4 7 6 5 12 12 4 8 11 11 7 15 7 6 8 10 9 12 13 14 6 9 12 20 13 17 23 19 4 3 6 6 5 6 3 5 7
27 26 26 25 24 24 25 25 23 21 22 22 17 9 10 6 7 9 9 8 9 11 6 2 3 5 9 10 10 10 13 13 14 16 16 11 12 16 12 15 20 12 6 6 4 2 1 4 2 4 9 10 7 14 13 10 8 8 2 4 7 19 15 9 10 12 11 11 15 7 6 8 13 18 11 13 24 23 12 5 7 3 4 3 4 7 7
26 26 26 26 25 22 22 24 22 20 21 21 15 7 11 7 4 8 7 6 3 4 2 4 3 7 7 12 13 13 13 14 15 14 11 11 12 12 10 8 10 6 2 7 15 16 17 15 13 11 10 8 12 13 15 9 8 7 11 14 5 7 17 3 3 10 13 15 11 4 6 9 10 14 9 6 9 16 12 9 8 7 6 6 6 4 5
24 26 25 25 23 24 24 22 20 20 22 21 16 6 8 8 5 6 3 4 7 8 8 11 8 8 9 16 16 12 12 13 16 15 10 12 14 11 5 3 2 4 5 14 10 9 5 5 4 6 10 8 10 11 9 11 15 9 6 5 11 9 10 7 10 2 9 13 14 22 20 14 13 12 13 15 9 6 6 8 9 11 7 5 7 6 4
22 23 24 24 23 22 23 22 19 20 21 22 17 7 8 10 6 7 8 8 4 6 8 4 12 13 15 13 10 8 9 11 12 16 14 12 17 14 17 14 12 17 22 18 5 4 2 6 4 5 13 9 13 10 11 8 10 12 8 10 5 9 13 9 15 11 14 12 10 17 18 21 16 13 13 17 16 15 12 11 9 10 9 6 9 6 8
21 21 22 23 22 23 24 22 21 21 20 22 18 7 8 8 7 9 8 6 6 6 8 9 9 4 5 8 9 10 11 11 13 16 17 14 16 17 12 6 3 1 0 3 6 10 6 4 5 6 11 9 11 9 11 16 7 6 15 12 13 6 16 10 13 12 15 13 16 13 8 6 7 12 16 15 13 13 12 13 12 9 11 12 12 10 10
21 21 22 22 21 21 22 22 20 19 18 20 12 6 8 8 6 7 7 5 6 8 10 10 8 2 0 7 4 2 4 5 9 12 14 15 14 13 11 10 12 7 6 7 7 10 6 5 8 11 12 7 10 13 8 7 12 6 10 10 10 8 14 12 8 9 14 15 20 11 10 15 13 17 16 15 16 12 13 10 8 11 14 14 15 18 12
21 22 21 19 19 20 21 21 19 18 20 20 12 6 6 7 7 8 9 8 9 9 6 4 4 2 5 6 5 8 11 10 9 10 12 14 17 16 13 12 13 12 10 11 8 8 7 10 14 7 2 1 7 10 10 1 2 7 9 9 15 17 16 12 12 14 16 17 13 9 17 17 12 6 10 16 16 15 14 14 14 13 14 13 13 14 14
20 20 19 19 20 21 21 20 18 16 16 15 3 3 6 9 8 9 9 9 9 8 9 9 8 10 6 6 4 6 6 8 8 10 11 12 15 17 15 14 15 13 12 12 11 11 14 13 8 10 9 9 7 6 6 9 10 14 17 21 17 16 17 18 23 22 20 13 8 15 16 18 12 13 9 9 11 13 16 15 15 17 18 16 15 13 13
20 19 19 19 19 19 19 19 19 17 14 3 1 2 3 4 8 10 12 11 10 6 8 7 9 5 4 2 3 6 9 9 10 11 13 11 13 14 13 14 13 13 12 13 11 12 11 8 8 4 1 7 8 4 8 8 11 16 19 19 15 18 17 18 22 18 18 10 7 14 15 15 11 11 10 9 10 11 12 13 16 17 17 14 11 12 13
19 18 18 19 18 18 17 17 18 16 11 3 2 2 2 4 3 7 14 14 12 8 4 7 9 5 8 3 7 8 10 7 8 9 12 12 11 12 12 12 11 12 10 8 9 11 8 11 8 10 6 12 9 8 10 10 12 10 20 21 18 16 17 21 20 16 19 10 9 14 12 10 2 4 11 9 11 10 9 11 16 15 15 11 11 12 12
17 16 17 18 17 17 17 17 17 14 5 5 7 6 3 0 2 4 5 7 8 8 8 7 5 5 4 3 5 5 12 13 11 6 4 4 9 10 11 14 10 12 12 13 10 6 12 9 11 11 13 14 12 9 10 12 11 16 22 20 18 17 17 18 16 17 17 13 13 16 20 19 11 13 18 13 11 8 12 14 18 15 10 9 8 10 12
16 16 16 16 16 15 16 17 17 10 5 7 10 13 14 21 17 11 4 2 4 4 4 7 6 3 4 4 2 2 2 4 8 8 9 9 7 6 7 8 9 9 12 10 9 6 6 11 10 12 11 10 8 5 10 15 16 19 26 22 16 13 16 17 18 16 16 14 14 18 22 21 18 19 22 19 13 10 12 15 17 10 4 4 7 10 11
11 12 15 16 16 16 15 16 13 9 2 2 4 7 10 17 17 21 8 3 2 3 1 2 4 7 6 2 3 5 9 7 8 10 10 8 5 6 6 6 9 8 7 13 4 3 2 7 12 10 6 12 10 7 11 13 15 22 25 25 18 11 12 15 15 17 16 15 15 19 24 23 18 11 11 7 10 12 13 13 9 8 6 6 9 13 14
8 11 13 13 14 14 13 6 2 2 2 2 4 5 3 11 14 11 9 5 5 4 2 3 1 4 3 2 3 2 3 8 10 10 10 7 8 9 6 6 4 9 5 4 7 8 7 9 7 9 13 8 11 12 8 11 21 23 24 24 21 13 8 12 15 16 14 14 16 19 24 22 16 17 20 12 11 11 9 6 5 6 8 8 10 12 9
10 10 10 11 5 2 2 4 2 2 0 2 4 1 5 10 11 8 8 6 5 4 4 3 2 5 6 7 2 3 6 6 5 4 6 2 6 4 5 5 8 7 3 7 9 10 9 7 7 15 10 11 14 10 13 18 23 23 24 24 24 16 16 21 17 6 7 11 16 18 20 14 14 20 19 14 14 12 14 11 6 8 11 12 11 11 8
10 9 4 6 4 2 1 1 1 3 3 5 3 3 6 1 4 3 1 3 3 4 6 3 7 6 4 4 2 3 2 3 6 5 4 6 4 4 8 7 10 4 3 4 6 11 7 6 10 10 12 14 11 12 15 17 19 20 20 21 19 8 3 4 4 6 9 11 15 16 15 13 14 13 14 15 13 11 11 15 11 10 13 13 10 10 12
8 9 4 2 1 1 1 1 2 2 5 6 6 1 3 1 1 1 1 2 4 5 4 6 8 6 3 5 7 6 1 4 3 2 3 4 5 4 4 5 7 6 9 6 9 8 5 5 7 10 12 10 8 11 12 12 13 13 10 8 9 9 6 1 10 10 10 12 13 15 14 12 14 15 14 16 12 11 14 15 9 7 9 8 10 11 10
6 2 2 1 2 1 2 2 3 7 1 3 2 1 1 1 1 0 2 2 0 3 4 6 8 9 7 7 9 4 5 7 5 2 4 3 3 4 7 10 6 7 9 9 7 12 8 7 8 9 10 9 10 3 14 13 12 12 10 9 9 10 8 9 8 4 10 13 13 13 13 14 16 17 13 11 12 11 12 12 11 7 8 9 10 10 11
2 1 1 1 1 1 1 2 9 3 1 1 1 1 1 0 2 3 1 1 1 2 1 6 7 8 9 12 10 9 5 5 7 8 6 4 2 3 3 3 2 8 11 12 7 11 7 8 7 8 10 8 5 14 12 13 10 12 13 13 12 11 12 10 9 8 8 8 8 8 10 9 9 7 8 8 10 10 10 10 8 6 7 9 10 11 13
1 2 2 1 2 1 1 2 3 3 1 1 1 1 0 1 2 0 0 2 2 3 1 2 3 6 4 6 8 10 2 3 3 2 1 5 2 3 1 1 5 3 4 7 4 6 4 9 11 11 3 6 6 11 12 11 11 12 12 13 12 12 13 12 11 11 13 10 9 9 9 10 9 8 8 8 7 7 7 7 6 5 7 8 10 11 10
4 2 2 2 1 0 1 2 2 1 1 0 1 2 2 1 1 2 1 2 4 2 2 2 1 5 7 11 9 6 4 1 2 2 2 5 2 4 7 3 0 2 5 3 1 2 6 7 10 7 5 7 10 9 10 11 12 13 14 14 14 13 13 12 13 12 12 11 9 9 8 10 9 8 10 11 9 7 7 8 9 8 8 7 5 5 5
7 5 3 2 1 1 1 1 1 1 2 1 1 2 1 1 3 3 2 1 1 1 4 1 2 0 2 3 2 1 3 1 3 2 3 4 1 2 1 1 3 4 5 2 3 3 1 2 2 4 5 6 8 10 10 10 10 10 10 12 13 13 12 12 12 12 11 11 11 10 10 10 9 9 10 11 12 13 7 4 7 9 10 10 8 6 6
2 1 2 2 1 2 1 3 1 2 1 0 2 3 2 2 2 0 1 3 2 2 3 6 5 8 7 5 4 2 0 1 2 0 2 2 0 1 2 5 6 4 2 4 1 4 2 3 2 3 5 5 6 9 10 11 11 11 11 12 12 13 13 13 13 13 12 10 10 10 9 10 10 10 10 10 11 13 13 10 6 7 8 8 8 7 7
1 2 1 1 1 1 0 2 2 2 2 2 2 3 2 4 4 3 6 3 3 4 2 4 2 5 6 1 1 1 1 2 2 4 3 3 2 3 3 3 1 1 1 7 2 2 4 2 3 2 5 7 8 9 10 9 10 11 11 12 13 15 15 15 14 13 11 11 12 12 10 11 12 11 11 11 11 10 12 13 12 12 10 10 10 9 7
0 2 1 2 1 1 1 1 0 0 2 1 3 3 1 4 2 4 3 1 2 4 3 5 4 4 4 1 4 3 0 1 0 2 2 0 2 3 3 2 1 2 3 2 6 6 2 3 3 3 6 7 8 8 9 9 10 10 10 12 14 14 14 14 12 12 11 12 12 11 9 9 10 12 11 11 11 13 13 14 13 13 13 13 13 12 12
1 1 1 0 1 2 1 1 2 3 1 1 2 2 4 5 4 6 4 1 4 2 1 2 2 2 2 2 1 1 0 0 1 3 1 1 2 2 3 2 3 1 4 8 3 3 1 3 3 4 5 6 8 8 8 9 10 11 10 10 11 12 13 13 13 13 13 13 13 11 10 11 11 11 9 11 13 11 12 12 14 14 12 12 13 13 13
1 1 1 1 2 1 1 4 1 2 2 4 4 2 3 1 1 5 3 2 4 3 3 0 1 1 2 3 0 2 1 2 1 2 2 2 1 4 2 1 1 2 0 1 2 2 3 3 4 4 6 6 7 9 9 10 11 12 12 12 13 13 13 14 14 14 14 14 14 12 12 13 12 12 10 12 13 11 11 12 13 11 12 13 13 13 12
2 1 1 2 1 1 1 1 2 4 5 4 4 3 3 3 4 3 4 2 1 4 3 1 2 1 4 0 1 1 1 2 2 3 2 1 2 3 1 2 1 3 2 2 2 4 2 5 5 6 7 8 8 8 8 8 10 10 12 12 12 12 12 12 13 14 14 13 13 13 13 13 11 11 11 12 13 12 12 12 11 11 11 12 13 13 14
1 1 2 1 3 3 2 0 1 5 4 6 5 4 1 2 4 2 6 7 4 3 2 3 2 2 2 1 1 0 1 1 2 1 3 1 1 0 3 1 1 2 2 2 2 3 4 4 6 7 8 9 10 9 9 10 10 10 11 11 11 11 11 13 14 14 13 13 14 14 15 13 10 10 11 13 13 13 12 12 11 11 13 13 13 13 13
1 0 2 1 2 3 2 4 4 6 7 7 6 5 5 4 3 4 8 6 7 3 2 3 1 1 1 1 1 1 2 1 2 1 1 1 2 1 2 3 2 2 3 3 3 4 4 5 5 6 8 8 8 9 9 10 10 10 11 12 12 12 12 12 12 12 13 13 14 15 13 13 12 11 10 10 12 12 11 9 9 12 13 13 13 14 14
2 1 1 2 1 1 2 5 3 2 3 4 3 4 5 2 6 7 7 6 5 1 2 0 0 0 2 2 3 2 1 2 1 2 1 1 3 0 1 3 3 2 3 4 4 4 5 5 5 7 8 8 9 9 10 10 11 11 10 11 12 12 12 12 12 12 13 13 14 14 15 14 15 11 10 12 12 11 11 11 13 14 15 12 14 17 14
Wind_Direction
295 295 297 301 305 306 321 259 204 194 183 181 164 156 177 185 209 90 159 161 158 163 197 189 199 217 235 47 261 283 241 193 170 167 184 196 191 159 206 192 155 237 164 166 167 171 198 161 204 191 212 245 203 145 161 140 166 162 113 72 179 138 188 206 264 260 220 88 94 60 29 194 208 234 218 180 201 196 206 242 119 209 190 208 220 232 257
295 292 294 297 298 308 307 317 232 195 185 179 159 174 185 186 146 146 197 169 168 164 191 201 206 210 256 214 234 139 237 168 163 202 179 184 164 192 179 36 255 156 156 152 172 178 228 195 193 225 188 225 87 170 157 161 169 190 185 186 160 184 197 219 267 250 173 157 136 168 189 213 232 226 211 209 215 203 231 51 175 267 222 211 202 247 259
291 294 292 291 296 294 305 307 304 213 188 177 161 179 161 122 66 101 168 188 185 194 201 173 181 208 210 191 218 202 229 222 199 169 191 186 179 136 212 188 151 166 158 167 83 183 206 120 215 234 170 220 105 286 188 186 187 183 29 4 156 234 156 165 203 211 227 216 215 195 190 207 209 238 224 213 210 204 197 228 213 235 226 200 217 248 253
294 292 292 292 289 293 293 301 309 275 197 170 172 171 123 183 166 172 173 185 204 233 47 200 201 198 199 212 224 199 227 180 212 195 209 174 174 212 106 58 144 123 144 162 180 198 231 199 159 178 206 223 200 193 202 210 209 178 198 190 167 194 127 224 240 247 247 295 64 19 104 124 193 204 204 206 206 210 210 228 216 225 215 216 225 227 279
291 290 289 287 293 288 290 294 291 307 227 170 179 174 184 165 191 156 177 166 226 212 200 204 190 207 176 204 170 199 218 155 221 199 201 187 175 164 181 167 161 193 168 179 184 199 169 129 99 199 192 176 121 89 190 221 247 253 211 185 123 115 226 219 236 258 262 291 1 162 184 227 219 202 210 204 199 201 208 211 229 163 208 258 242 225 251
288 291 288 290 287 289 288 284 289 289 298 193 176 184 166 202 204 186 180 165 182 199 215 202 201 177 170 214 179 200 199 191 200 147 246 113 182 165 221 204 210 168 178 150 185 166 177 152 204 178 218 139 172 145 159 206 207 211 221 190 201 189 226 190 197 242 253 264 269 200 225 240 249 243 238 221 205 199 210 221 225 190 213 245 251 165 225
290 287 290 288 288 288 286 288 284 285 305 242 197 184 216 227 71 206 167 210 194 196 194 188 180 181 190 210 204 209 200 207 194 156 154 170 212 201 213 204 201 185 166 173 181 154 142 230 213 197 164 194 140 196 99 237 181 194 199 187 220 171 246 208 197 255 258 258 252 238 237 248 244 243 239 234 226 219 216 229 225 220 237 247 260 269 268
287 289 286 287 289 286 288 288 286 284 290 291 224 204 172 200 167 194 205 225 198 207 206 171 179 198 188 198 211 214 209 214 177 176 163 183 214 193 232 188 183 186 189 194 197 189 191 179 187 205 162 149 190 208 197 125 156 194 199 184 213 200 241 121 166 229 254 258 254 245 242 240 249 248 244 234 233 236 233 235 237 235 248 252 254 261 270
286 285 284 285 286 287 287 286 286 285 285 289 269 239 222 209 212 94 176 197 204 185 188 178 187 193 196 212 225 217 215 215 187 201 185 195 184 173 213 163 171 193 201 208 217 180 193 190 196 154 170 196 191 171 205 145 156 183 190 193 189 200 231 72 148 262 255 201 231 242 250 254 251 257 256 237 224 234 232 227 229 217 232 241 250 258 257
285 284 281 280 281 283 284 286 285 285 279 239 281 280 275 268 314 274 186 206 182 191 182 189 177 203 189 196 215 196 212 205 183 218 217 222 207 182 180 163 176 194 206 213 206 167 195 185 112 164 179 89 136 211 139 166 157 170 189 182 178 190 185 173 181 241 253 150 120 298 279 287 259 235 237 230 220 216 229 228 227 217 220 231 228 234 236
286 283 282 282 282 281 282 282 283 281 281 241 236 256 212 248 266 229 233 222 197 199 182 194 186 200 192 203 220 198 220 187 189 202 216 191 220 197 188 180 187 208 207 212 184 144 110 85 78 64 84 114 118 139 167 168 167 163 169 173 191 178 192 195 150 237 83 332 293 221 318 266 231 108 202 206 216 211 221 232 222 222 201 220 221 237 257
283 283 281 280 278 278 277 278 278 279 276 271 227 241 210 252 282 258 247 225 211 185 197 199 191 196 203 195 204 193 202 200 202 205 216 151 197 158 179 194 185 226 127 90 97 109 101 73 64 62 57 67 80 76 164 182 186 187 166 164 156 182 183 206 145 223 234 108 257 296 254 252 58 63 321 253 266 223 223 237 233 223 212 226 240 249 254
279 279 278 279 279 276 275 277 277 279 278 276 271 257 225 175 228 253 254 254 233 193 202 209 202 207 203 199 204 210 208 209 207 206 216 179 159 178 190 186 197 206 125 127 123 123 127 150 81 101 66 60 66 99 211 215 198 193 208 174 150 178 186 164 216 173 15 108 163 251 232 345 291 281 267 198 213 227 256 273 253 239 212 213 228 239 246
276 278 279 277 277 278 278 274 275 274 276 271 258 256 236 194 223 227 225 250 249 229 212 214 204 209 211 203 195 207 211 214 212 210 211 210 197 194 195 195 191 135 144 130 136 129 92 134 186 174 215 113 293 256 214 202 218 201 199 207 196 173 132 175 209 161 225 165 207 234 318 311 286 276 261 182 199 172 188 235 271 197 209 211 222 236 242
278 276 275 275 273 273 272 273 274 273 271 273 270 260 237 189 192 218 264 263 268 262 207 216 205 206 209 208 195 202 201 203 202 213 216 212 212 196 194 170 131 143 136 126 129 177 148 137 166 193 170 161 210 210 108 204 141 287 225 202 192 193 186 177 210 221 196 233 263 265 274 256 143 191 301 257 318 187 210 8 279 194 206 199 209 225 237
276 276 276 275 274 273 274 272 271 271 270 268 259 261 254 209 195 192 215 239 281 265 229 228 230 212 209 211 200 198 193 185 201 199 206 206 203 65 34 123 162 144 148 112 154 158 172 186 205 197 204 201 187 106 219 119 194 110 238 200 175 280 293 185 200 241 157 206 234 234 243 245 68 136 158 235 178 156 165 240 274 275 204 191 201 224 238
273 271 272 274 274 272 272 273 274 272 270 266 261 254 258 197 175 188 216 222 225 247 358 284 231 226 219 217 212 218 202 206 182 190 186 203 199 141 86 115 162 164 160 124 147 148 180 208 210 216 243 138 168 205 75 199 159 111 104 146 184 191 199 182 220 228 205 211 226 244 209 245 168 185 192 191 101 116 164 280 270 147 143 182 202 222 239
274 272 272 270 269 269 269 268 267 267 268 266 261 252 255 246 189 169 220 224 245 260 241 237 234 234 220 206 211 201 201 200 193 187 209 181 111 129 163 149 158 260 207 165 165 182 193 197 202 203 217 159 163 114 220 144 164 175 167 163 168 190 199 206 218 208 219 216 249 302 267 235 235 242 149 171 163 212 341 240 206 151 168 187 201 208 203
274 273 273 274 272 269 269 270 269 267 265 268 267 258 240 243 199 183 205 221 215 247 195 234 239 251 270 261 235 206 206 197 183 184 169 135 209 157 139 100 128 166 195 185 175 193 191 214 215 210 213 193 167 214 135 154 182 126 133 129 118 189 179 239 238 228 219 215 237 253 296 255 195 226 158 173 155 215 222 239 91 146 135 182 213 194 167
275 271 269 267 267 266 265 266 268 269 267 264 258 252 250 233 204 181 197 231 229 246 258 244 178 248 240 241 226 217 194 208 204 193 174 187 133 126 106 138 270 90 178 178 202 194 198 208 202 180 214 183 206 99 214 218 136 165 182 188 165 174 162 197 193 175 73 132 234 279 260 254 192 158 152 197 207 237 239 18 259 140 194 161 217 203 177
279 275 270 268 270 270 267 265 267 268 265 263 257 255 256 227 226 211 212 227 259 267 268 210 216 238 250 246 246 245 211 202 187 200 199 183 165 146 180 183 175 174 175 177 194 189 191 210 196 200 209 198 168 189 217 210 225 244 154 179 204 152 181 187 192 168 169 175 201 214 218 88 158 154 184 191 212 232 224 137 264 213 193 216 186 223 183
276 276 273 271 268 269 270 269 267 265 268 268 263 254 261 229 219 209 205 203 228 233 255 159 160 250 255 259 263 273 281 278 234 203 186 167 188 196 190 182 178 170 177 161 82 46 261 209 114 155 202 200 178 216 202 212 214 178 246 135 205 189 206 162 174 185 187 200 217 202 88 180 183 194 213 202 208 223 229 191 248 200 228 183 212 205 187
273 271 266 263 264 266 265 265 266 269 263 260 259 249 258 248 201 188 161 217 238 275 313 281 196 234 251 259 241 236 242 248 274 266 232 162 190 215 201 162 177 187 170 186 183 189 194 184 200 195 210 193 187 211 217 215 224 164 186 208 277 144 198 106 202 218 223 270 258 58 259 224 216 224 236 248 240 231 228 207 238 239 220 179 193 200 173
274 271 266 262 262 263 265 268 270 266 264 261 258 229 255 250 206 180 191 203 221 251 247 231 234 240 225 249 251 228 227 242 241 249 253 184 190 203 236 250 101 159 209 207 200 187 176 165 208 164 208 190 180 208 198 208 229 198 186 195 221 228 196 186 215 176 138 250 207 231 236 234 223 222 239 247 233 251 230 233 235 249 229 202 227 246 256
272 274 270 265 261 262 262 264 261 262 262 264 262 247 247 255 217 188 209 234 208 193 234 227 215 223 232 240 254 238 219 229 233 231 232 212 206 196 203 193 184 186 194 197 161 143 132 148 168 179 208 203 172 217 207 218 238 175 203 204 147 223 183 211 219 205 203 236 135 202 226 234 228 213 227 236 239 235 229 227 240 247 258 251 246 226 248
272 271 267 261 260 258 258 257 257 257 259 260 255 242 245 241 215 210 215 236 255 271 267 256 267 222 201 211 227 227 235 227 230 231 226 216 216 211 206 165 152 24 96 115 160 194 182 185 179 186 199 220 180 207 207 206 231 163 201 205 188 148 140 215 196 217 241 269 269 248 270 280 241 238 236 237 236 233 238 236 238 245 257 256 250 215 231
275 271 267 264 262 264 262 261 260 263 259 255 252 229 244 249 219 208 204 194 227 246 223 244 237 222 324 234 239 225 261 250 236 235 230 215 222 223 206 181 180 181 148 159 197 199 201 207 183 201 194 221 169 209 215 214 209 199 211 206 136 130 202 198 183 219 233 217 229 202 241 253 225 222 228 235 241 240 244 238 224 226 238 241 250 257 242
273 272 268 260 259 259 260 261 262 259 258 260 257 237 232 243 225 209 217 222 220 253 277 270 255 234 220 243 212 247 257 256 248 241 238 226 214 218 214 185 181 182 185 175 180 190 200 193 212 201 153 95 151 217 212 289 204 230 230 207 185 200 196 174 199 209 234 220 227 199 230 251 250 234 208 220 225 227 226 225 230 232 229 233 237 252 260
262 265 267 261 256 256 257 258 256 257 264 268 234 242 243 238 237 215 214 216 228 236 254 271 283 265 238 256 207 192 216 220 222 233 234 235 219 211 210 193 191 189 187 195 196 191 196 209 195 193 197 184 182 204 152 210 202 220 219 219 204 219 204 197 211 222 242 238 176 215 229 241 237 237 227 204 218 220 227 229 231 235 237 234 234 235 245
267 264 265 263 260 258 259 259 256 252 248 246 68 273 266 250 207 210 207 209 204 220 236 250 252 258 199 187 356 220 226 214 222 224 226 225 228 213 202 192 201 191 194 194 188 206 199 205 214 205 222 141 194 174 213 197 213 228 231 228 211 219 215 222 224 214 234 216 189 232 233 243 245 252 241 218 219 212 212 218 228 235 237 232 229 234 234
256 259 264 264 260 257 256 256 256 255 254 180 168 221 223 262 215 199 204 197 190 200 218 238 248 287 282 198 221 220 198 201 210 224 228 229 228 219 205 196 202 182 192 201 204 212 170 213 188 205 175 188 188 203 212 199 220 229 235 226 215 209 207 222 226 224 239 227 209 246 250 248 141 242 248 222 231 210 201 220 237 235 240 228 215 227 239
253 250 256 258 260 265 263 255 247 243 205 191 210 195 182 238 137 342 291 219 192 200 218 230 250 242 263 245 213 202 205 203 200 200 220 188 229 214 215 195 197 191 200 200 202 192 211 194 206 197 194 189 190 226 210 220 219 232 240 230 220 215 216 224 224 225 232 223 229 256 261 255 220 228 252 226 221 195 195 226 244 244 225 225 234 234 239
255 255 251 253 252 252 258 260 253 239 197 234 250 259 280 285 273 248 172 141 231 233 202 220 220 228 232 231 235 312 211 186 210 192 221 190 217 195 216 191 203 203 201 204 199 216 185 197 195 210 204 159 205 199 213 216 221 230 242 239 225 208 212 220 222 221 221 212 200 222 242 245 239 234 244 252 244 216 199 226 244 252 218 205 236 249 252
259 269 268 263 257 250 246 248 250 246 148 129 241 226 227 230 241 248 236 104 265 250 260 200 194 217 249 276 340 247 173 195 212 182 213 187 174 189 200 178 188 205 187 208 178 211 205 190 205 205 167 199 196 209 221 216 222 234 243 248 235 213 208 220 220 219 216 207 204 224 239 243 247 252 253 222 232 234 225 231 243 252 236 217 237 245 254
266 266 270 270 266 267 269 281 43 115 217 211 241 256 255 234 232 238 232 201 249 235 206 242 253 292 277 318 244 273 143 217 212 187 203 187 164 190 185 215 176 210 190 163 218 205 192 205 171 204 211 164 196 214 206 208 220 230 238 248 244 213 196 222 228 219 209 197 211 224 233 240 249 256 253 239 241 241 233 225 219 234 243 234 234 248 248
268 258 261 272 279 99 75 81 154 83 180 228 236 311 230 232 238 229 209 197 199 258 246 254 197 202 207 237 243 259 129 212 235 200 201 153 183 193 191 178 222 203 146 171 210 185 215 142 169 223 187 210 212 191 206 208 219 224 230 238 244 220 206 211 226 194 185 206 218 229 238 240 234 246 257 252 246 254 252 249 200 199 230 241 244 250 252
322 312 42 67 64 36 34 210 146 180 203 196 245 295 307 351 20 28 62 228 237 201 231 218 234 236 210 229 250 302 65 230 177 203 218 214 208 154 198 205 211 174 167 191 186 210 202 148 211 214 206 217 209 206 213 215 220 226 232 235 249 277 235 232 216 150 186 215 221 231 238 238 243 246 255 255 245 249 260 258 232 206 228 236 244 248 247
87 98 91 39 47 53 320 317 220 255 278 291 279 327 352 17 216 170 286 254 225 191 227 211 230 233 219 244 259 242 71 263 62 332 262 207 210 232 171 211 212 205 227 188 205 171 174 190 211 220 236 222 226 220 224 227 233 251 286 342 24 23 1 216 166 170 201 215 225 232 237 237 243 244 239 252 254 246 246 253 249 216 228 227 236 243 249
89 70 42 50 85 185 199 246 294 297 262 88 46 91 307 122 63 328 227 202 8 232 204 214 227 213 214 219 251 253 133 265 277 202 258 268 270 252 187 200 188 203 234 225 227 148 218 200 204 210 227 209 207 31 6 5 24 36 40 38 23 14 2 356 348 261 223 225 231 223 218 227 234 246 244 244 251 246 250 255 252 223 216 220 225 237 243
29 62 104 102 184 242 11 299 296 266 137 140 8 110 238 244 136 252 111 61 255 256 219 233 211 223 196 206 226 249 170 210 245 251 240 266 123 276 286 259 217 199 213 209 193 154 191 190 186 207 218 205 114 11 358 7 12 17 22 19 16 11 7 355 348 348 347 345 5 12 7 346 331 304 286 265 254 253 247 248 249 237 220 222 213 223 237
42 78 57 161 230 222 263 301 6 52 71 72 31 22 78 288 237 227 43 250 248 248 178 203 188 207 202 201 203 242 170 179 229 296 335 251 194 183 350 274 272 315 281 218 187 172 181 202 194 203 110 32 350 357 355 356 9 358 13 12 13 11 2 353 353 355 359 356 6 12 8 3 5 355 344 338 331 315 306 305 300 266 237 229 220 223 235
207 177 191 137 157 159 20 28 66 73 358 68 126 234 205 232 44 351 177 211 229 231 267 151 223 208 210 195 203 199 250 185 184 152 216 265 207 201 247 225 232 199 238 257 9 73 191 182 206 165 41 10 359 1 4 3 358 1 357 10 8 7 0 358 351 351 356 357 357 1 358 1 357 355 348 339 336 346 355 348 338 323 300 279 260 250 246
115 107 82 49 31 344 75 46 290 133 156 184 128 269 216 199 214 192 238 227 316 160 256 56 259 162 324 61 322 202 212 168 179 221 201 242 224 75 224 245 227 217 247 345 65 260 296 314 96 58 20 357 354 7 356 2 347 353 353 3 6 1 359 357 354 345 348 353 356 354 353 349 351 346 343 338 334 338 357 12 332 322 320 319 310 288 263
61 41 36 0 55 298 84 244 192 59 349 131 164 210 198 252 304 230 231 249 191 265 226 177 198 166 207 183 180 182 132 329 194 170 241 265 234 201 225 230 228 259 329 54 263 293 73 64 71 21 19 352 3 4 1 354 356 348 352 358 357 1 1 359 355 351 351 352 353 346 350 351 348 343 345 344 345 333 326 326 323 311 307 303 300 293 286
69 357 43 16 49 259 83 255 22 114 209 249 201 232 188 201 235 190 224 230 151 230 294 291 212 181 214 253 41 315 150 230 227 175 230 204 208 223 211 243 232 41 227 259 262 154 91 89 93 56 5 3 349 359 356 355 351 354 345 348 359 1 360 360 354 352 342 349 344 341 346 354 349 342 341 336 331 329 324 322 324 324 320 315 307 305 293
95 172 91 105 322 297 125 241 69 288 273 185 230 203 241 272 207 246 272 0 251 276 252 233 231 227 222 235 164 211 125 140 179 223 228 165 145 240 210 216 81 146 222 192 237 237 110 89 41 34 14 360 349 349 351 349 349 347 356 359 356 354 352 355 347 342 337 336 336 335 340 351 346 340 331 333 339 333 330 324 324 323 321 321 319 315 315
55 15 82 103 128 266 74 199 236 202 190 250 240 202 233 261 249 256 252 206 237 264 322 303 190 247 233 221 161 295 155 158 199 254 65 44 211 253 36 79 218 237 231 231 211 97 168 100 70 24 8 347 346 346 344 348 350 350 352 351 350 350 350 348 346 338 337 336 332 334 346 345 338 328 322 345 339 329 319 321 319 315 323 329 333 334 332
151 244 93 113 244 185 188 248 233 314 239 221 251 242 240 228 300 285 326 321 294 302 236 246 272 250 270 284 63 211 183 162 147 289 146 227 35 31 311 319 77 98 202 97 154 86 81 44 32 4 351 348 339 342 346 347 348 350 351 348 346 346 348 347 340 338 331 336 336 338 341 340 338 329 334 345 332 321 321 321 316 335 343 340 337 333 329
143 129 188 211 218 173 232 278 23 312 284 293 277 269 286 319 291 292 303 282 330 290 297 245 260 0 253 216 178 196 231 241 126 224 111 78 183 248 187 223 12 15 354 68 66 75 13 27 356 2 344 344 344 343 343 343 339 349 350 344 339 336 339 337 336 329 334 333 336 338 333 330 329 324 336 344 342 331 319 313 329 339 341 341 336 332 329
76 342 32 61 340 300 243 235 19 286 304 324 347 322 327 313 288 324 7 339 339 334 297 197 167 202 254 91 263 261 247 187 190 356 73 227 153 168 90 69 163 157 130 59 21 26 2 359 350 353 340 348 337 343 338 339 338 346 344 340 337 336 337 333 333 331 333 334 332 328 330 323 325 324 344 344 331 317 321 329 337 340 338 336 334 329 325
355 73 256 163 175 245 345 319 295 297 311 303 310 331 344 330 359 331 10 334 306 348 9 252 190 104 340 35 61 27 259 102 58 77 152 140 358 69 163 147 102 51 69 56 33 356 345 343 349 332 333 335 335 334 334 326 338 343 336 337 335 338 332 329 328 332 332 331 329 323 327 335 322 321 331 337 330 329 330 328 340 341 336 332 329 327 320
14 9 324 298 314 337 281 266 268 259 287 320 351 3 335 336 348 311 328 312 275 190 260 296 314 123 74 203 222 205 358 38 95 95 60 63 357 257 70 54 73 42 354 338 333 334 337 335 330 328 327 325 324 328 325 334 338 331 331 331 337 332 332 330 327 330 329 328 324 326 327 325 324 323 341 345 339 343 343 338 334 336 335 331 321 316 314